User: anonymous   Login
Location: Bucquoy
(50.1391°N, 2.7097°E)
Time: 02:07:34
(UTC+00:00)
Language:

USA 81 - Orbit

View from above orbital plane
View from above orbital plane
View from above satellite
View from above satellite

Ground track
Ground track

The orbit data is extracted from the following two-line orbital elements,

1 21949U 92023A   21163.91184268 0.00000000  00000-0  00000-0 0    06
2 21949  84.9999  49.2764 0003548 154.8150 205.1849 14.31478936    06
Epoch (UTC): 12 June 2021 21:53:03
Eccentricity: 0.0003548
inclination: 84.9999°
perigee height: 784 km
apogee height: 789 km
right ascension of ascending node: 49.2764°
argument of perigee: 154.8150°
revolutions per day: 14.31478936
mean anomaly at epoch: 205.1849°
orbit number at epoch: 0

The dashed part of the orbit path shows where the satellite is in the earth's shadow,  

DLR